AAL325 KCMH-KPHL

Flight info

Callsign AAL325
Flight time 1h 9m
Altitude FL310
Route BLISS J152 JST.BOJID4
Aircraft A319/M-VGDW/C

Departure

Time 2026-05-01 10:50
Airport John Glenn Columbus International Airport (KCMH)

Arrival

Time 2026-05-01 11:59
Airport Philadelphia International Airport (KPHL)
Time Latitude Longitude Altitude Speed Heading
2026-05-01 10:21 39.99836 -82.88146 827 ft 0 kts 186°
2026-05-01 10:40 39.99843 -82.88145 827 ft 2 kts 186°
2026-05-01 10:40 39.99861 -82.88142 827 ft 3 kts 186°
2026-05-01 10:41 39.99880 -82.88140 827 ft 3 kts 186°
2026-05-01 10:41 39.99899 -82.88137 827 ft 2 kts 186°
2026-05-01 10:41 39.99936 -82.88146 827 ft 3 kts 140°
2026-05-01 10:42 39.99948 -82.88167 827 ft 3 kts 105°
2026-05-01 10:42 39.99949 -82.88182 827 ft 0 kts 96°
2026-05-01 10:44 39.99949 -82.88181 827 ft 0 kts 96°
2026-05-01 10:45 39.99949 -82.88180 827 ft 0 kts 96°
2026-05-01 10:46 39.99950 -82.88168 827 ft 3 kts 84°
2026-05-01 10:46 39.99959 -82.88130 827 ft 6 kts 70°
2026-05-01 10:47 39.99968 -82.88065 827 ft 9 kts 86°
2026-05-01 10:47 39.99967 -82.88004 827 ft 4 kts 92°
2026-05-01 10:47 39.99968 -82.87974 827 ft 4 kts 77°
2026-05-01 10:47 39.99996 -82.87949 827 ft 7 kts
2026-05-01 10:48 40.00040 -82.87942 827 ft 7 kts
2026-05-01 10:48 40.00097 -82.87936 827 ft 8 kts
2026-05-01 10:48 40.00138 -82.87934 827 ft 5 kts 353°
2026-05-01 10:48 40.00161 -82.87966 827 ft 6 kts 286°
2026-05-01 10:49 40.00166 -82.88031 827 ft 9 kts 274°
2026-05-01 10:49 40.00173 -82.88156 827 ft 30 kts 274°
2026-05-01 10:49 40.00209 -82.88789 827 ft 108 kts 274°
2026-05-01 10:49 40.00278 -82.90045 838 ft 167 kts 274°
2026-05-01 10:50 40.00372 -82.91620 1479 ft 174 kts 275°
2026-05-01 10:50 40.00512 -82.93237 2098 ft 186 kts 274°
2026-05-01 10:50 40.00659 -82.94971 2517 ft 201 kts 274°
2026-05-01 10:50 40.00833 -82.96834 2910 ft 211 kts 274°
2026-05-01 10:51 40.01030 -82.98751 3314 ft 215 kts 274°
2026-05-01 10:51 40.01232 -83.00687 3715 ft 217 kts 275°
2026-05-01 10:51 40.01440 -83.02646 4116 ft 219 kts 276°
2026-05-01 10:51 40.02069 -83.04470 4507 ft 230 kts 304°
2026-05-01 10:52 40.03437 -83.05649 5027 ft 249 kts 334°
2026-05-01 10:52 40.05153 -83.06100 5583 ft 255 kts 348°
2026-05-01 10:52 40.06915 -83.06308 6235 ft 257 kts 352°
2026-05-01 10:52 40.08723 -83.06463 6892 ft 263 kts 352°
2026-05-01 10:53 40.10562 -83.06605 7544 ft 268 kts 352°
2026-05-01 10:53 40.12433 -83.06741 8196 ft 271 kts 352°
2026-05-01 10:53 40.14332 -83.06660 8821 ft 281 kts
2026-05-01 10:53 40.16120 -83.05539 9476 ft 295 kts 33°
2026-05-01 10:54 40.17433 -83.03446 10134 ft 305 kts 59°
2026-05-01 10:54 40.18197 -83.00836 10820 ft 310 kts 72°
2026-05-01 10:54 40.18743 -82.98095 11477 ft 316 kts 76°
2026-05-01 10:54 40.19208 -82.95233 12135 ft 330 kts 78°
2026-05-01 10:55 40.19634 -82.92246 12789 ft 339 kts 79°
2026-05-01 10:55 40.20051 -82.89182 13441 ft 347 kts 79°
2026-05-01 10:55 40.20470 -82.86054 14093 ft 353 kts 79°
2026-05-01 10:55 40.20895 -82.82875 14744 ft 359 kts 79°
2026-05-01 10:56 40.21328 -82.79645 15395 ft 364 kts 79°
2026-05-01 10:56 40.21770 -82.76361 16048 ft 369 kts 79°
2026-05-01 10:56 40.22217 -82.73046 16697 ft 374 kts 79°
2026-05-01 10:56 40.22669 -82.69675 17348 ft 380 kts 79°
2026-05-01 10:57 40.23126 -82.66254 17999 ft 385 kts 79°
2026-05-01 10:57 40.23588 -82.62789 18649 ft 390 kts 79°
2026-05-01 10:57 40.24056 -82.59277 19223 ft 396 kts 79°
2026-05-01 10:57 40.24532 -82.55702 19732 ft 402 kts 79°
2026-05-01 10:58 40.25011 -82.52081 20233 ft 407 kts 79°
2026-05-01 10:58 40.25494 -82.48420 20735 ft 411 kts 79°
2026-05-01 10:58 40.25978 -82.44721 21235 ft 415 kts 79°
2026-05-01 10:58 40.26466 -82.40985 21735 ft 420 kts 79°
2026-05-01 10:59 40.26958 -82.37202 22236 ft 424 kts 79°
2026-05-01 10:59 40.27455 -82.33386 22710 ft 429 kts 79°
2026-05-01 10:59 40.27958 -82.29516 23165 ft 434 kts 79°
2026-05-01 10:59 40.28467 -82.25607 23616 ft 438 kts 79°
2026-05-01 11:00 40.28981 -82.21664 24066 ft 442 kts 79°
2026-05-01 11:00 40.29501 -82.17681 24517 ft 447 kts 79°
2026-05-01 11:00 40.30025 -82.13664 24967 ft 451 kts 79°
2026-05-01 11:00 40.30557 -82.09607 25388 ft 455 kts 79°
2026-05-01 11:01 40.31095 -82.05504 25793 ft 459 kts 79°
2026-05-01 11:01 40.31627 -82.01369 26195 ft 463 kts 80°
2026-05-01 11:01 40.32032 -81.97184 26593 ft 467 kts 83°
2026-05-01 11:01 40.32319 -81.92942 26979 ft 470 kts 85°
2026-05-01 11:02 40.32524 -81.88664 27361 ft 471 kts 87°
2026-05-01 11:02 40.32673 -81.84379 27737 ft 474 kts 88°
2026-05-01 11:02 40.32785 -81.80061 28112 ft 476 kts 88°
2026-05-01 11:02 40.32870 -81.75715 28456 ft 480 kts 89°
2026-05-01 11:03 40.32938 -81.71350 28764 ft 482 kts 89°
2026-05-01 11:03 40.32994 -81.66944 29065 ft 485 kts 89°
2026-05-01 11:03 40.33040 -81.62530 29332 ft 488 kts 90°
2026-05-01 11:03 40.33080 -81.58085 29585 ft 490 kts 90°
2026-05-01 11:04 40.33115 -81.53611 29833 ft 492 kts 90°
2026-05-01 11:04 40.33146 -81.49124 30032 ft 495 kts 90°
2026-05-01 11:04 40.33175 -81.44610 30212 ft 497 kts 90°
2026-05-01 11:04 40.33200 -81.40085 30388 ft 499 kts 90°
2026-05-01 11:05 40.33224 -81.35532 30563 ft 500 kts 90°
2026-05-01 11:05 40.33245 -81.30981 30711 ft 503 kts 90°
2026-05-01 11:05 40.33265 -81.26393 30841 ft 507 kts 90°
2026-05-01 11:05 40.33282 -81.21753 30949 ft 517 kts 90°
2026-05-01 11:06 40.33298 -81.16993 30994 ft 528 kts 90°
2026-05-01 11:06 40.33326 -81.07310 30998 ft 536 kts 90°
2026-05-01 11:07 40.33352 -80.92600 30998 ft 542 kts 90°
2026-05-01 11:07 40.33360 -80.82743 30999 ft 542 kts 90°
2026-05-01 11:08 40.33359 -80.72893 30999 ft 541 kts 90°
2026-05-01 11:09 40.33341 -80.58161 31004 ft 540 kts 90°
2026-05-01 11:09 40.33318 -80.48349 31009 ft 540 kts 90°
2026-05-01 11:10 40.33267 -80.33615 31012 ft 540 kts 90°
2026-05-01 11:10 40.33222 -80.23784 31014 ft 541 kts 90°
2026-05-01 11:11 40.33166 -80.13942 31016 ft 541 kts 90°
2026-05-01 11:11 40.33103 -80.04097 31014 ft 541 kts 90°
2026-05-01 11:12 40.33036 -79.94255 31003 ft 541 kts 90°
2026-05-01 11:12 40.32963 -79.84424 31000 ft 541 kts 91°
2026-05-01 11:13 40.32881 -79.74588 31005 ft 541 kts 91°
2026-05-01 11:13 40.32789 -79.64745 31016 ft 541 kts 91°
2026-05-01 11:14 40.32689 -79.54918 31027 ft 540 kts 91°
2026-05-01 11:14 40.32579 -79.45105 31028 ft 540 kts 91°
2026-05-01 11:15 40.32460 -79.35276 30790 ft 541 kts 91°
2026-05-01 11:15 40.32397 -79.30357 30523 ft 539 kts 91°
2026-05-01 11:15 40.32333 -79.25475 30172 ft 536 kts 91°
2026-05-01 11:16 40.32308 -79.23597 30030 ft 534 kts 91°
2026-05-01 11:16 40.32258 -79.18759 29657 ft 529 kts 91°
2026-05-01 11:16 40.32253 -79.13984 29283 ft 524 kts 90°
2026-05-01 11:16 40.32290 -79.09242 28907 ft 518 kts 89°
2026-05-01 11:17 40.32349 -79.04562 28533 ft 512 kts 89°
2026-05-01 11:17 40.32417 -78.99926 28157 ft 507 kts 89°
2026-05-01 11:17 40.32457 -78.95345 27782 ft 502 kts 90°
2026-05-01 11:17 40.32424 -78.90804 27408 ft 497 kts 91°
2026-05-01 11:18 40.32339 -78.86298 27033 ft 493 kts 92°
2026-05-01 11:18 40.32231 -78.81841 26659 ft 490 kts 92°
2026-05-01 11:18 40.32116 -78.77404 26284 ft 486 kts 92°
2026-05-01 11:18 40.32006 -78.72997 25909 ft 483 kts 92°
2026-05-01 11:19 40.31907 -78.68623 25535 ft 480 kts 92°
2026-05-01 11:19 40.31820 -78.64267 25160 ft 477 kts 92°
2026-05-01 11:19 40.31748 -78.59952 24829 ft 474 kts 91°
2026-05-01 11:19 40.31690 -78.55749 24530 ft 472 kts 91°
2026-05-01 11:20 40.31641 -78.51369 24232 ft 471 kts 91°
2026-05-01 11:20 40.31603 -78.47096 23973 ft 471 kts 90°
2026-05-01 11:20 40.31574 -78.42815 23722 ft 471 kts 90°
2026-05-01 11:20 40.31551 -78.38530 23484 ft 470 kts 90°
2026-05-01 11:21 40.31531 -78.34274 23312 ft 468 kts 90°
2026-05-01 11:21 40.31512 -78.30018 23204 ft 466 kts 90°
2026-05-01 11:21 40.31492 -78.25791 23124 ft 465 kts 90°
2026-05-01 11:21 40.31472 -78.21556 23051 ft 465 kts 90°
2026-05-01 11:22 40.31449 -78.17336 23029 ft 464 kts 90°
2026-05-01 11:22 40.31424 -78.13108 23027 ft 464 kts 90°
2026-05-01 11:22 40.31397 -78.08887 23029 ft 465 kts 90°
2026-05-01 11:22 40.31367 -78.04665 23031 ft 465 kts 90°
2026-05-01 11:23 40.31334 -78.00429 23033 ft 465 kts 90°
2026-05-01 11:23 40.31301 -77.96191 23035 ft 466 kts 90°
2026-05-01 11:23 40.31267 -77.91965 23039 ft 466 kts 90°
2026-05-01 11:23 40.31231 -77.87737 23042 ft 466 kts 90°
2026-05-01 11:24 40.31193 -77.83498 23044 ft 466 kts 90°
2026-05-01 11:24 40.31154 -77.79262 23045 ft 466 kts 90°
2026-05-01 11:24 40.31070 -77.70800 23044 ft 465 kts 91°
2026-05-01 11:25 40.31025 -77.66574 23047 ft 465 kts 91°
2026-05-01 11:25 40.30930 -77.58126 23053 ft 464 kts 91°
2026-05-01 11:25 40.30880 -77.53912 23054 ft 464 kts 91°
2026-05-01 11:26 40.30829 -77.49685 23042 ft 464 kts 91°
2026-05-01 11:26 40.30724 -77.41230 22571 ft 465 kts 91°
2026-05-01 11:26 40.30670 -77.37029 22183 ft 460 kts 91°
2026-05-01 11:27 40.30614 -77.32881 21784 ft 453 kts 91°
2026-05-01 11:27 40.30558 -77.28787 21384 ft 446 kts 91°
2026-05-01 11:27 40.30501 -77.24761 20975 ft 440 kts 91°
2026-05-01 11:27 40.30443 -77.20803 20535 ft 434 kts 91°
2026-05-01 11:28 40.30384 -77.16874 20085 ft 428 kts 91°
2026-05-01 11:28 40.30324 -77.13008 19635 ft 422 kts 91°
2026-05-01 11:28 40.30105 -77.09211 19184 ft 416 kts 98°
2026-05-01 11:29 40.29002 -77.01896 18289 ft 404 kts 105°
2026-05-01 11:29 40.28291 -76.98372 17842 ft 399 kts 107°
2026-05-01 11:29 40.26756 -76.91499 17025 ft 387 kts 109°
2026-05-01 11:30 40.25979 -76.88169 16651 ft 381 kts 109°
2026-05-01 11:30 40.25203 -76.84881 16275 ft 376 kts 109°
2026-05-01 11:30 40.24435 -76.81645 15900 ft 371 kts 109°
2026-05-01 11:30 40.23676 -76.78446 15525 ft 367 kts 109°
2026-05-01 11:31 40.22924 -76.75280 15150 ft 363 kts 108°
2026-05-01 11:31 40.22181 -76.72147 14776 ft 360 kts 108°
2026-05-01 11:31 40.21445 -76.69039 14401 ft 357 kts 108°
2026-05-01 11:31 40.20717 -76.65958 14026 ft 354 kts 108°
2026-05-01 11:32 40.19993 -76.62897 13652 ft 352 kts 108°
2026-05-01 11:32 40.19275 -76.59854 13297 ft 349 kts 108°
2026-05-01 11:32 40.18566 -76.56851 13042 ft 344 kts 108°
2026-05-01 11:32 40.17868 -76.53894 12791 ft 340 kts 108°
2026-05-01 11:33 40.17172 -76.50948 12542 ft 339 kts 108°
2026-05-01 11:33 40.16479 -76.48017 12293 ft 339 kts 108°
2026-05-01 11:33 40.15782 -76.45072 12044 ft 339 kts 108°
2026-05-01 11:33 40.15087 -76.42137 11794 ft 339 kts 108°
2026-05-01 11:34 40.14393 -76.39213 11607 ft 336 kts 107°
2026-05-01 11:34 40.13707 -76.36323 11426 ft 332 kts 107°
2026-05-01 11:34 40.13055 -76.33454 11223 ft 327 kts 105°
2026-05-01 11:34 40.12557 -76.30584 11024 ft 322 kts 101°
2026-05-01 11:35 40.12174 -76.27723 10786 ft 319 kts 98°
2026-05-01 11:35 40.11863 -76.24864 10536 ft 317 kts 96°
2026-05-01 11:35 40.11600 -76.22023 10307 ft 314 kts 95°
2026-05-01 11:35 40.11368 -76.19219 10133 ft 309 kts 94°
2026-05-01 11:36 40.11155 -76.16444 9958 ft 307 kts 93°
2026-05-01 11:36 40.10954 -76.13682 9784 ft 306 kts 93°
2026-05-01 11:36 40.10759 -76.10923 9608 ft 305 kts 93°
2026-05-01 11:36 40.10567 -76.08176 9433 ft 303 kts 92°
2026-05-01 11:37 40.10378 -76.05452 9313 ft 300 kts 92°
2026-05-01 11:37 40.10192 -76.02754 9213 ft 299 kts 92°
2026-05-01 11:37 40.10005 -76.00059 9113 ft 298 kts 92°
2026-05-01 11:37 40.09818 -75.97378 9027 ft 297 kts 92°
2026-05-01 11:38 40.09631 -75.94703 9000 ft 295 kts 92°
2026-05-01 11:38 40.09445 -75.92052 8994 ft 294 kts 92°
2026-05-01 11:38 40.09258 -75.89387 8993 ft 295 kts 92°
2026-05-01 11:38 40.09070 -75.86728 8993 ft 295 kts 92°
2026-05-01 11:39 40.08882 -75.84067 8993 ft 296 kts 92°
2026-05-01 11:39 40.08692 -75.81401 8993 ft 296 kts 92°
2026-05-01 11:39 40.08507 -75.78727 8994 ft 296 kts 92°
2026-05-01 11:39 40.08344 -75.76055 8994 ft 296 kts 91°
2026-05-01 11:40 40.08195 -75.73387 8995 ft 296 kts 91°
2026-05-01 11:40 40.08056 -75.70716 8995 ft 295 kts 91°
2026-05-01 11:40 40.07922 -75.68063 8995 ft 292 kts 91°
2026-05-01 11:40 40.07793 -75.65439 8995 ft 289 kts 90°
2026-05-01 11:41 40.07667 -75.62838 8996 ft 286 kts 90°
2026-05-01 11:41 40.07543 -75.60257 8909 ft 288 kts 90°
2026-05-01 11:41 40.07419 -75.57615 8554 ft 291 kts 90°
2026-05-01 11:41 40.07295 -75.55016 8204 ft 284 kts 90°
2026-05-01 11:42 40.07172 -75.52476 7855 ft 279 kts 90°
2026-05-01 11:42 40.07050 -75.49937 7535 ft 282 kts 90°
2026-05-01 11:42 40.06928 -75.47397 7361 ft 279 kts 90°
2026-05-01 11:42 40.06806 -75.44889 7201 ft 275 kts 90°
2026-05-01 11:43 40.06685 -75.42420 7069 ft 271 kts 90°
2026-05-01 11:43 40.06564 -75.39962 6822 ft 273 kts 90°
2026-05-01 11:43 40.06442 -75.37493 6573 ft 273 kts 91°
2026-05-01 11:44 40.06197 -75.32587 6073 ft 270 kts 91°
2026-05-01 11:44 40.06074 -75.30160 5822 ft 267 kts 91°
2026-05-01 11:44 40.05953 -75.27766 5574 ft 264 kts 91°
2026-05-01 11:44 40.05831 -75.25379 5322 ft 262 kts 91°
2026-05-01 11:45 40.05590 -75.23037 5044 ft 263 kts 103°
2026-05-01 11:45 40.04625 -75.21058 4841 ft 260 kts 133°
2026-05-01 11:45 40.03160 -75.19731 4671 ft 255 kts 152°
2026-05-01 11:45 40.01539 -75.18865 4503 ft 251 kts 162°
2026-05-01 11:46 39.99870 -75.18244 4355 ft 248 kts 166°
2026-05-01 11:46 39.98342 -75.17268 4166 ft 248 kts 142°
2026-05-01 11:46 39.97399 -75.15447 4015 ft 243 kts 109°
2026-05-01 11:46 39.97311 -75.13310 3869 ft 236 kts 77°
2026-05-01 11:47 39.97923 -75.11357 3768 ft 232 kts 59°
2026-05-01 11:47 39.98628 -75.09459 3625 ft 234 kts 62°
2026-05-01 11:47 39.99203 -75.07492 3525 ft 231 kts 66°
2026-05-01 11:47 39.99704 -75.05528 3448 ft 227 kts 68°
2026-05-01 11:48 40.00167 -75.03583 3371 ft 223 kts 69°
2026-05-01 11:48 40.00609 -75.01663 3295 ft 220 kts 70°
2026-05-01 11:48 40.01039 -74.99759 3220 ft 218 kts 70°
2026-05-01 11:48 40.01461 -74.97868 3145 ft 218 kts 70°
2026-05-01 11:49 40.01883 -74.95972 3069 ft 218 kts 70°
2026-05-01 11:49 40.02300 -74.94086 3013 ft 217 kts 70°
2026-05-01 11:49 40.02716 -74.92202 3000 ft 216 kts 70°
2026-05-01 11:49 40.03101 -74.90303 2997 ft 217 kts 72°
2026-05-01 11:50 40.03419 -74.88424 3001 ft 207 kts 74°
2026-05-01 11:50 40.03590 -74.86582 2959 ft 208 kts 88°
2026-05-01 11:50 40.02988 -74.84864 2983 ft 216 kts 126°
2026-05-01 11:50 40.01700 -74.83861 2996 ft 222 kts 162°
2026-05-01 11:51 40.00175 -74.83764 3041 ft 220 kts 184°
2026-05-01 11:51 39.98661 -74.83905 3000 ft 215 kts 187°
2026-05-01 11:51 39.97200 -74.84067 2986 ft 208 kts 189°
2026-05-01 11:51 39.95929 -74.84800 2984 ft 197 kts 219°
2026-05-01 11:52 39.95056 -74.86144 3019 ft 195 kts 240°
2026-05-01 11:52 39.94444 -74.87694 3000 ft 189 kts 250°
2026-05-01 11:52 39.93989 -74.89264 2990 ft 182 kts 256°
2026-05-01 11:52 39.93618 -74.90817 2990 ft 177 kts 258°
2026-05-01 11:53 39.93293 -74.92350 2991 ft 175 kts 260°
2026-05-01 11:53 39.92990 -74.93873 2992 ft 173 kts 261°
2026-05-01 11:53 39.92700 -74.95387 2994 ft 173 kts 261°
2026-05-01 11:53 39.92414 -74.96907 2994 ft 172 kts 262°
2026-05-01 11:54 39.92132 -74.98417 2995 ft 172 kts 262°
2026-05-01 11:54 39.91850 -74.99925 2995 ft 172 kts 262°
2026-05-01 11:54 39.91568 -75.01430 2996 ft 172 kts 262°
2026-05-01 11:54 39.91283 -75.02934 2988 ft 171 kts 261°
2026-05-01 11:55 39.91001 -75.04409 2782 ft 163 kts 261°
2026-05-01 11:55 39.90732 -75.05809 2550 ft 156 kts 261°
2026-05-01 11:55 39.90475 -75.07166 2346 ft 153 kts 261°
2026-05-01 11:55 39.90225 -75.08505 2156 ft 152 kts 261°
2026-05-01 11:56 39.89975 -75.09831 1966 ft 151 kts 260°
2026-05-01 11:56 39.89722 -75.11154 1773 ft 149 kts 260°
2026-05-01 11:56 39.89473 -75.12434 1616 ft 144 kts 259°
2026-05-01 11:56 39.89228 -75.13697 1419 ft 145 kts 259°
2026-05-01 11:57 39.88993 -75.14979 1221 ft 146 kts 258°
2026-05-01 11:57 39.88836 -75.15831 1089 ft 146 kts 258°
2026-05-01 11:57 39.88489 -75.17530 824 ft 145 kts 256°
2026-05-01 11:57 39.88239 -75.18782 620 ft 142 kts 256°
2026-05-01 11:58 39.87986 -75.20024 392 ft 141 kts 256°
2026-05-01 11:58 39.87738 -75.21251 196 ft 139 kts 255°
2026-05-01 11:58 39.87285 -75.23485 48 ft 97 kts 256°
2026-05-01 11:59 39.87153 -75.24150 48 ft 60 kts 255°
2026-05-01 11:59 39.87061 -75.24609 48 ft 44 kts 255°
2026-05-01 11:59 39.87014 -75.24905 48 ft 26 kts 274°
2026-05-01 12:00 39.87088 -75.25158 48 ft 9 kts 326°
2026-05-01 12:00 39.87138 -75.25168 48 ft 6 kts 28°
2026-05-01 12:00 39.87188 -75.25012 48 ft 11 kts 73°
2026-05-01 12:01 39.87244 -75.24955 48 ft 12 kts
2026-05-01 12:01 39.87327 -75.24944 48 ft 13 kts
2026-05-01 12:01 39.87380 -75.24936 48 ft 6 kts
2026-05-01 12:01 39.87418 -75.24928 48 ft 5 kts 18°
2026-05-01 12:02 39.87449 -75.24900 48 ft 6 kts 32°
2026-05-01 12:02 39.87484 -75.24879 48 ft 5 kts 21°
2026-05-01 12:02 39.87505 -75.24869 48 ft 1 kts 22°
2026-05-01 12:02 39.87507 -75.24868 48 ft 0 kts 22°